Regional Weather Roundup
Issued by NWS

Home | Current Version | Previous Version | Graphics & Text | Print | Product List | Glossary On
Versions: 1 2 3 4 5 6 7 8 9 10 11 12 13 14 15 16 17 18 19 20 21 22 23 24 25 26 27 28 29 30 31 32 33 34 35 36 37 38 39 40 41 42 43 44 45 46 47 48 49 50
000
ASUS43 KTOP 291808
RWRKS

WEATHER ROUNDUP FOR KANSAS
NATIONAL WEATHER SERVICE GOODLAND KS
100 PM CDT MON SEP 29 2014

NOTE:  "FAIR" INDICATES FEW OR NO CLOUDS BELOW 12,000 FEET WITH NO
SIGNIFICANT WEATHER AND/OR OBSTRUCTIONS TO VISIBILITY.

KSZ001>006-013>018-027>032-041>047-291900-
NORTHWEST KANSAS

CITY           SKY/WX    TMP DP  RH WIND       PRES   REMARKS
GOODLAND       MOSUNNY   79  56  45 S28G37    29.97F
6HR MIN TEMP:  58; 6HR MAX TEMP:  79;

HAYS           SUNNY     81  57  44 S16G22    30.02F
HILL CITY      SUNNY     83  53  35 S20G29    30.00F
6HR MIN TEMP:  63; 6HR MAX TEMP:  83;

RUSSELL        SUNNY     81  60  48 S13       30.02F
6HR MIN TEMP:  60; 6HR MAX TEMP:  81;

$$

KSZ061>065-074>080-084>089-291900-
SOUTHWEST KANSAS

CITY           SKY/WX    TMP DP  RH WIND       PRES   REMARKS
DODGE CITY     SUNNY     81  51  35 S15G29    30.04F
6HR MIN TEMP:  56; 6HR MAX TEMP:  81;

ELKHART          N/A     78  54  43 S22         N/A
GARDEN CITY    MOSUNNY   80  54  40 S22G31    30.01F
6HR MIN TEMP:  54; 6HR MAX TEMP:  80;

GREAT BEND     PTSUNNY   81  55  41 S8G17     30.03F
LIBERAL        MOSUNNY   81  55  41 S17G26    30.05F
PRATT          MOSUNNY   81  52  36 S12       30.05F
$$

KSZ066>073-081>083-090>101-291900-
SOUTHEAST KANSAS

CITY           SKY/WX    TMP DP  RH WIND       PRES   REMARKS
CHANUTE        SUNNY     83  62  49 CALM      30.06F
6HR MIN TEMP:  56; 6HR MAX TEMP:  83;

COFFEYVILLE    SUNNY     84  61  45 CALM      30.05F
6HR MIN TEMP:  58; 6HR MAX TEMP:  84;

HUTCHINSON     SUNNY     85  56  37 S7G18     30.04F
6HR MIN TEMP:  57; 6HR MAX TEMP:  85;

MEDICINE LODGE   N/A     82  57  42 S9G18     30.03F
NEWTON         MOSUNNY   79  57  47 S10       30.08F
PARSONS        MOSUNNY   82  62  50 CALM      30.06F
6HR MIN TEMP:  56; 6HR MAX TEMP:  85;

WICHITA INTL   MOSUNNY   84  57  39 S8        30.04F
6HR MIN TEMP:  61; 6HR MAX TEMP:  85;

WICHITA JABRA  MOSUNNY   82  58  43 S7        30.05F
6HR MIN TEMP:  57; 6HR MAX TEMP:  82;

WICHITA MCCONL MOSUNNY   83  57  41 SE12      30.05F
WINFIELD       SUNNY     83  60  45 S5        30.06F
6HR MIN TEMP:  61; 6HR MAX TEMP:  83;

$$

KSZ007>012-019>026-033>040-048>060-102>105-291900-
NORTHEAST KANSAS

CITY           SKY/WX    TMP DP  RH WIND       PRES   REMARKS
CONCORDIA      SUNNY     81  60  48 S10       30.04F
6HR MIN TEMP:  59; 6HR MAX TEMP:  81;

EMPORIA        MOSUNNY   81  61  50 S8        30.06F
6HR MIN TEMP:  54; 6HR MAX TEMP:  82;

LAWRENCE       MOSUNNY   81  58  45 CALM      30.06F
6HR MIN TEMP:  51; 6HR MAX TEMP:  82;

MANHATTAN      MOSUNNY   83  60  45 SW8       30.04F
6HR MIN TEMP:  52; 6HR MAX TEMP:  83;

MARYSVILLE     MOSUNNY   79  59  50 S6        30.05F
OLATHE IND     PTSUNNY   81  61  50 VRB3      30.07F
6HR MIN TEMP:  58; 6HR MAX TEMP:  82;

OLATHE EXE     PTSUNNY   81  61  50 S6        30.06F
6HR MIN TEMP:  58; 6HR MAX TEMP:  82;

SALINA         SUNNY     83  61  47 S9        30.04F
6HR MIN TEMP:  57; 6HR MAX TEMP:  83;

TOPEKA BILLARD SUNNY     83  62  49 VRB7      30.05F
6HR MIN TEMP:  55; 6HR MAX TEMP:  85;

TOPEKA FORBES  MOSUNNY   81  60  48 MISG      30.06F
6HR MIN TEMP:  53; 6HR MAX TEMP:  82;

$$



USA.gov is the U.S. government's official web portal to all federal, state and local government web resources and services.